GW4002 Weather Reports


Display with metric or nautical units.
time (UTC)temp
F
wind
direction
speed
MPH
gust
MPH
rain 1hr
in
rain 24hr
in
rain mn
in
humidity
%
barometer
mb
20260503211130 68 221 4.0 5.0 0.00 3.64 1.97 26
20260503210100 69 265 3.0 5.0 0.00 3.64 1.97 26
20260503205032 69 208 4.0 6.0 0.00 3.74 1.97 26
20260503204052 68 248 3.0 5.0 0.00 3.74 1.97 26
20260503203108 68 172 3.0 4.0 0.00 3.74 1.97 26
20260503202107 68 246 3.0 6.0 0.00 3.74 1.97 26
20260503201037 68 206 3.0 5.0 0.00 3.74 1.97 26
20260503200111 67 293 4.0 7.0 0.00 3.74 1.97 26
20260503195101 67 230 4.0 6.0 0.00 3.84 1.97 27
20260503194247 67 153 3.0 4.0 0.00 3.84 1.97 27
20260503193043 67 148 3.0 4.0 0.00 3.84 1.97 27
20260503192115 67 230 4.0 7.0 0.00 3.84 1.97 27
20260503191117 67 212 2.0 4.0 0.10 3.84 1.97 27
20260503190052 66 214 4.0 6.0 0.10 3.84 1.97 27
20260503185159 66 238 2.0 3.0 0.20 3.84 1.97 27
20260503184051 66 292 2.0 4.0 0.20 3.84 1.97 27
20260503183041 65 241 3.0 6.0 0.20 3.84 1.97 27
20260503182053 66 255 2.0 3.0 0.20 3.84 1.97 28
20260503181023 66 265 2.0 3.0 0.10 3.74 1.87 28
20260503180024 64 159 2.0 3.0 0.10 3.74 1.87 28
20260503175026 64 186 2.0 4.0 0.00 3.64 1.77 28
20260503174105 63 245 4.0 5.0 0.00 3.64 1.77 28
20260503173030 64 249 3.0 4.0 0.00 3.64 1.77 29
20260503172124 62 197 3.0 5.0 0.00 3.64 1.77 30
20260503171103 62 42 1.0 3.0 0.10 3.64 1.77 29
20260503131315 49 78 1.0 1.0 0.00 3.64 1.28 60
20260503130109 48 287 0.0 1.0 0.00 3.64 1.28 62
20260503100208 40 0.0 0.0 0.10 3.74 1.18 74
20260503090134 43 0.0 0.0 0.39 3.94 1.08 65
20260503080948 45 39 1.0 1.0 0.10 3.64 0.79 61
20260503072819 47 68 0.0 1.0 0.10 3.74 0.69 60
20260503071646 47 52 2.0 3.0 0.10 3.74 0.69 60
20260503070750 47 58 1.0 1.0 0.20 3.84 0.69 60
20260503054628 48 0.0 0.0 0.30 4.13 0.49 56
20260503053043 49 77 0.0 1.0 0.30 4.33 0.49 54
20260503052044 49 351 1.0 2.0 0.10 4.13 0.20 54
20260503051137 50 30 1.0 2.0 0.10 4.13 0.20 54
20260503050253 49 44 2.0 2.0 0.10 4.33 0.20 55
20260503045224 49 0.0 0.0 0.20 4.33 0.20 55
20260503044019 48 0.0 0.0 0.30 4.33 0.20 54
20260503043607 49 46 1.0 2.0 0.39 4.43 0.20 53
20260503042042 49 39 1.0 1.0 0.39 4.33 0.10 52
20260503041023 50 39 1.0 1.0 0.39 4.33 0.10 52
20260503040231 50 73 2.0 2.0 0.49 4.33 0.10 51
20260503035058 51 58 2.0 3.0 0.49 4.33 4.33 52
20260503034028 51 65 2.0 3.0 0.39 4.33 4.23 51
20260503033153 51 54 2.0 3.0 0.30 4.23 4.13 50
20260503032031 51 69 2.0 2.0 0.20 4.13 4.04 50
20260503031033 51 96 2.0 3.0 0.30 4.13 4.04 50
20260503030034 52 65 1.0 2.0 0.20 4.04 3.94 49
20260503025139 52 56 2.0 4.0 0.10 3.94 3.84 48
20260503024108 52 71 1.0 3.0 0.10 3.94 3.84 48
20260503023038 52 23 3.0 3.0 0.20 4.04 3.84 48
20260503022112 52 36 2.0 2.0 0.20 4.04 3.84 48
20260503021103 51 77 1.0 2.0 0.10 3.94 3.74 48
20260503020353 51 0.0 0.0 0.10 3.94 3.74 48
20260503015045 51 57 1.0 2.0 0.10 3.94 3.74 48
20260503014123 51 59 1.0 2.0 0.20 3.94 3.74 48
20260503013122 51 71 1.0 1.0 0.10 3.84 3.64 47
20260503012122 51 67 1.0 1.0 0.20 3.94 3.64 46
20260503011019 52 62 1.0 1.0 0.20 3.94 3.64 45
20260503010042 51 0.0 0.0 0.30 4.23 3.64 45
20260503005331 53 43 2.0 2.0 0.30 4.23 3.64 45
20260503004139 53 65 1.0 1.0 0.39 4.13 3.54 44
20260503003037 54 71 1.0 1.0 0.49 4.13 3.54 43
20260503002027 54 68 1.0 2.0 0.39 4.04 3.44 41
20260503001030 55 60 1.0 2.0 0.39 4.04 3.44 40
20260503000050 55 71 1.0 3.0 0.30 3.94 3.35 40
20260502235123 56 82 1.0 1.0 0.30 3.94 3.35 38
20260502234105 57 56 1.0 3.0 0.10 3.74 3.15 36
20260502233041 58 67 3.0 5.0 0.00 3.64 3.05 34
20260502232037 58 55 4.0 5.0 0.10 3.64 3.05 34
20260502231141 59 53 4.0 6.0 0.20 3.64 3.05 34
20260502230039 59 51 2.0 5.0 0.20 3.64 3.05 33
20260502225101 59 28 4.0 6.0 0.30 3.64 3.05 33
20260502224116 59 70 2.0 4.0 0.39 3.64 3.05 33
20260502223044 59 47 2.0 3.0 0.39 3.64 3.05 32
20260502222050 60 39 2.0 3.0 0.30 3.54 2.95 32
20260502221150 61 81 2.0 6.0 0.20 3.44 2.85 31
20260502220048 61 51 4.0 7.0 0.20 3.44 2.85 29
20260502215050 63 37 5.0 7.0 0.20 3.35 2.76 28
20260502214111 65 339 3.0 6.0 0.10 3.25 2.66 28
20260502213024 63 57 5.0 7.0 0.10 3.25 2.66 29
20260502212123 62 64 2.0 5.0 0.10 3.25 2.66 31